Location: Unspecified
(0.0000°N, 0.0000°E)
Time: 08:19:56
(UTC+00:00)

BEESAT 2 - Pass Details

Date: 21 May 2021
Orbit: 493 x 525 km, 64.9° (Epoch: 16 June)

Event Time Altitude Azimuth Distance (km) Brightness Sun altitude
Exits shadow 04:21:52 20° 335° (NNW) 1,245 ? -22.1°
Drops below altitude 10° 04:23:26 10° 352° (N) 1,735 ? -21.8°
Sets 04:25:49 0° 4° (N) 2,624 ? -21.2°
